[TLELIST] Archives

 

[TLELIST] Current TLEs

October 16th 2024 PST

HST 1 20580U 90037B 24289.96080940 .00012648 00000-0 55716-3 0 9993 2 20580 28.4685 254.6337 0002594 274.1177 85.9119 15.20267027695419 ISS (ZARYA) 1 25544U 98067A 24290.31759140 .00023260 00000-0 41482-3 0 9992 2 25544 51.6386 75.4196 0009361 75.3000 2.5236 15.49927186477331 CXO 1 25867U 99040B 24292.14899531 .00000890 00000-0 00000-0 0 9996 2 25867 43.8911 143.9268 8763916 302.7950 0.4259 0.37813126 15024 ...Continue Reading

[TLELIST] Current TLEs

October 16th 2024 PST

HST 1 20580U 90037B 24289.96080940 .00012648 00000-0 55716-3 0 9993 2 20580 28.4685 254.6337 0002594 274.1177 85.9119 15.20267027695419 ISS (ZARYA) 1 25544U 98067A 24290.31759140 .00023260 00000-0 41482-3 0 9992 2 25544 51.6386 75.4196 0009361 75.3000 2.5236 15.49927186477331 CXO 1 25867U 99040B 24292.14899531 .00000890 00000-0 00000-0 0 9996 2 25867 43.8911 143.9268 8763916 302.7950 0.4259 0.37813126 15024 ...Continue Reading

[TLELIST] Current TLEs

October 15th 2024 PST

HST 1 20580U 90037B 24288.64786459 .00010983 00000-0 48319-3 0 9996 2 20580 28.4685 263.4650 0002594 258.6466 101.3836 15.20235984695217 ISS (ZARYA) 1 25544U 98067A 24289.35132757 .00025185 00000-0 44906-3 0 9995 2 25544 51.6391 80.2098 0009495 68.3910 14.4496 15.49883461477182 CXO 1 25867U 99040B 24289.50546092 .00001055 00000-0 00000-0 0 9997 2 25867 43.7893 144.2087 8763523 302.6146 0.5675 0.37807096 15016 ...Continue Reading

[TLELIST] Current TLEs

October 15th 2024 PST

HST 1 20580U 90037B 24288.64786459 .00010983 00000-0 48319-3 0 9996 2 20580 28.4685 263.4650 0002594 258.6466 101.3836 15.20235984695217 ISS (ZARYA) 1 25544U 98067A 24289.35132757 .00025185 00000-0 44906-3 0 9995 2 25544 51.6391 80.2098 0009495 68.3910 14.4496 15.49883461477182 CXO 1 25867U 99040B 24289.50546092 .00001055 00000-0 00000-0 0 9997 2 25867 43.7893 144.2087 8763523 302.6146 0.5675 0.37807096 15016 ...Continue Reading

[TLELIST] Current TLEs

October 14th 2024 PST

HST 1 20580U 90037B 24287.66313969 .00013037 00000-0 57541-3 0 9999 2 20580 28.4685 270.0884 0002664 246.4656 113.5658 15.20217340695060 ISS (ZARYA) 1 25544U 98067A 24288.38439782 -.00274092 00000-0 -49859-2 0 9991 2 25544 51.6375 85.0013 0009245 75.5296 8.7941 15.49814641477033 CXO 1 25867U 99040B 24289.50546092 .00001055 00000-0 00000-0 0 9997 2 25867 43.7893 144.2087 8763523 302.6146 0.5675 0.37807096 15016 ...Continue Reading

[TLELIST] Current TLEs

October 14th 2024 PST

HST 1 20580U 90037B 24287.66313969 .00013037 00000-0 57541-3 0 9999 2 20580 28.4685 270.0884 0002664 246.4656 113.5658 15.20217340695060 ISS (ZARYA) 1 25544U 98067A 24288.38439782 -.00274092 00000-0 -49859-2 0 9991 2 25544 51.6375 85.0013 0009245 75.5296 8.7941 15.49814641477033 CXO 1 25867U 99040B 24289.50546092 .00001055 00000-0 00000-0 0 9997 2 25867 43.7893 144.2087 8763523 302.6146 0.5675 0.37807096 15016 ...Continue Reading

[TLELIST] Current TLEs

October 14th 2024 PST

HST 1 20580U 90037B 24287.66313969 .00013037 00000-0 57541-3 0 9999 2 20580 28.4685 270.0884 0002664 246.4656 113.5658 15.20217340695060 ISS (ZARYA) 1 25544U 98067A 24288.38439782 -.00274092 00000-0 -49859-2 0 9991 2 25544 51.6375 85.0013 0009245 75.5296 8.7941 15.49814641477033 CXO 1 25867U 99040B 24289.50546092 .00001055 00000-0 00000-0 0 9997 2 25867 43.7893 144.2087 8763523 302.6146 0.5675 0.37807096 15016 ...Continue Reading

[TLELIST] Current TLEs

October 13th 2024 PST

HST 1 20580U 90037B 24286.67840186 .00013744 00000-0 60742-3 0 9997 2 20580 28.4685 276.7116 0002683 234.4617 125.5726 15.20195098694913 ISS (ZARYA) 1 25544U 98067A 24286.82176872 .00028824 00000-0 51475-3 0 9992 2 25544 51.6380 92.7424 0009179 63.7262 296.4669 15.49763544476798 CXO 1 25867U 99040B 24289.50546092 .00001055 00000-0 00000-0 0 9997 2 25867 43.7893 144.2087 8763523 302.6146 0.5675 0.37807096 15016 ...Continue Reading

[TLELIST] Current TLEs

October 12th 2024 PST

HST 1 20580U 90037B 24286.15320224 .00018111 00000-0 80312-3 0 9994 2 20580 28.4686 280.2439 0002703 229.5338 130.5020 15.20183039695095 ISS (ZARYA) 1 25544U 98067A 24286.17692722 .00031145 00000-0 55599-3 0 9998 2 25544 51.6377 95.9360 0009253 61.6494 298.5427 15.49732338476696 CXO 1 25867U 99040B 24286.86180913 .00001176 00000-0 00000-0 0 9993 2 25867 43.7215 144.4103 8764486 302.5151 0.6012 0.37805863 15004 ...Continue Reading

[TLELIST] Current TLEs

October 12th 2024 PST

HST 1 20580U 90037B 24286.15320224 .00018111 00000-0 80312-3 0 9994 2 20580 28.4686 280.2439 0002703 229.5338 130.5020 15.20183039695095 ISS (ZARYA) 1 25544U 98067A 24286.17692722 .00031145 00000-0 55599-3 0 9998 2 25544 51.6377 95.9360 0009253 61.6494 298.5427 15.49732338476696 CXO 1 25867U 99040B 24286.86180913 .00001176 00000-0 00000-0 0 9993 2 25867 43.7215 144.4103 8764486 302.5151 0.6012 0.37805863 15004 ...Continue Reading
  • This mailing list is a public mailing list - anyone may join or leave, at any time.
  • This mailing list is announce-only.

International Space Station (ISS) / Hubble Space Telescope (HST) / Chandra X-Ray Observatory Orbital Data via EMAIL

Privacy Policy:

Private list